Weather in Kuleberyevo

Russia / Ivanovo Oblast     56°58′34″N   40°30′48″E
temp.,
°C
wind,
m/s
gust,
m/s
humid.,
%
clouds,
%
prec.,
mm/h
press.,
hPa
HPBL,
m
7 march, sun
sun700:00−14ssw23940 0.0 101159
03:00−14s48935 0.0 1008184
06:00−10s5138885 0.0 1003473
09:00−8ssw7149292 0.6 999791
12:00−6ssw71392100 1.2 994980
15:00−3ssw61194100 2.6 992846
18:00−7wnw2382100 1.1 99169
21:00−9nw1277100 1.1 99121
8 march, mon
mon800:00−11wsw2276100 0.0 99222
03:00−11w249497 0.0 99399
06:00−13wsw239467 0.0 99326
09:00−9sw139382 0.1 995219
12:00−7n2490100 0.3 996466
15:00−6nnw4682100 0.4 999805
18:00−8nnw499399 0.1 1002473
21:00−11nnw3994100 0.2 1006437
9 march, tue
tue900:00−13nnw3895100 0.1 1008307
03:00−16nnw389693 0.1 1010226
06:00−20nnw389898 0.0 1012206
09:00−20nnw379491 0.0 1014277
12:00−16nnw358989 0.0 1015426
15:00−15nnw358795 0.1 1017598
18:00−18nnw3894100 0.1 1017278
21:00−20nnw3897100 0.1 1020317
10 march, wed
wed1000:00−24nnw379892 0.0 1022142
03:00−26nnw359866 0.0 1023102
06:00−28nnw25980 0.0 1024111
09:00−24n35930 0.0 1026237
12:00−18nnw24830 0.0 1026410
15:00−15nw34790 0.0 1026589
18:00−18w239316 0.0 102644
21:00−20wnw37968 0.0 1027138
11 march, thu
thu1100:00−22wnw36940 0.0 1026111
03:00−22wnw35910 0.0 102881
06:00−23wnw23894 0.0 102751
09:00−18w248116 0.0 1028159
12:00−11wsw24690 0.0 1027343
15:00−9ssw34740 0.0 1025477
18:00−14sse34890 0.0 102493
21:00−13s4109514 0.0 1023332